Location: Newark
(30.1000°N, 109.4667°E)
Time: 01:15:59
(UTC+00:00)

SR - Pass Details

Date: 27 February 2020
Orbit: 577 x 878 km, 66.7° (Epoch: 28 March)

Event Time Altitude Azimuth Distance (km) Brightness Sun altitude
Rises 05:18:49 0° 175° (S) 3,398 ? 50.9°
Reaches altitude 10° 05:21:34 10° 164° (SSE) 2,491 ? 50.8°
Maximum altitude 05:26:27 28° 107° (ESE) 1,566 ? 50.6°
Drops below altitude 10° 05:31:24 10° 50° (NE) 2,525 ? 50.4°
Sets 05:34:11 0° 39° (NE) 3,452 ? 50.2°
